Nebraska City, NE

2:50 AM CDT on June 25, 2017 (GMT -0500)
Nebraska City Municipal

Weather History for KAFK - December, 2012

Change the Weather History Date:

Thursday, December 13, 2012

  Actual Average (KSDA) Record (KSDA)
Temperature  
Mean Temperature 42 °F -  
Max Temperature 54 °F 38 °F 60 °F (1975)
Min Temperature 30 °F 18 °F -19 °F (1961)
Degree Days  
Heating Degree Days 23    
Moisture  
Dew Point 19 °F    
Average Humidity 42    
Maximum Humidity 60    
Minimum Humidity 28    
Precipitation  
Precipitation 0.00 in - - ()
Sea Level Pressure  
Sea Level Pressure 30.03 in    
Wind  
Wind Speed 11 mph (SSW)    
Max Wind Speed 20 mph    
Max Gust Speed 24 mph    
Visibility 10 miles    
Events      
Averages and records for this station are not official NWS values.
T = Trace of Precipitation, MM = Missing Value Source: NWS Daily Summary

Daily Weather History Graph

Daily Weather History Graph

Search for Another Location

Airport or City:

Trip Planner

Search our weather history database for the weather conditions in past years. The results will help you decide how hot, cold, wet, or windy it might be!

Date:

Astronomy

Dec. 13, 2012 Rise Set
Actual Time 7:38 AM CST 4:56 PM CST
Civil Twilight 7:08 AM CST 5:27 PM CST
Nautical Twilight 6:33 AM CST 6:02 PM CST
Astronomical Twilight 6:00 AM CST 6:35 PM CST
Moon 7:48 AM CST (12/13) 5:40 PM CST (12/13)
Length of Visible Light 10h 19m
Length of Day
9h 17m
New Moon, 0% of the Moon is Illuminated
Dec 13
New Moon
Dec 19
First Quarter
Dec 28
Full
Jan 4
Last Quarter
Jan 11
New

Hourly Weather History & Observations

Time (CST) Temp. Windchill Dew Point Humidity Pressure Visibility Wind Dir Wind Speed Gust Speed Precip Events Conditions
12:15 AM 38.5 °F 29.2 °F 13.1 °F 35% 30.01 in 10.0 mi SSW 17.3 mph 24.2 mph N/A   Clear
12:35 AM 38.3 °F 28.7 °F 13.1 °F 36% 30.01 in 10.0 mi SSW 18.4 mph 23.0 mph N/A   Clear
12:55 AM 37.8 °F 28.3 °F 13.1 °F 36% 30.00 in 10.0 mi SSW 17.3 mph 24.2 mph N/A   Clear
1:15 AM 37.8 °F 27.7 °F 13.3 °F 37% 30.00 in 10.0 mi SSW 19.6 mph - N/A   Clear
1:35 AM 37.8 °F 28.0 °F 13.5 °F 37% 29.99 in 10.0 mi South 18.4 mph 24.2 mph N/A   Clear
1:55 AM 37.8 °F 28.0 °F 13.6 °F 37% 29.99 in 10.0 mi SSW 18.4 mph 24.2 mph N/A   Clear
2:15 AM 37.8 °F 28.0 °F 13.8 °F 38% 29.99 in 10.0 mi SSW 18.4 mph 24.2 mph N/A   Clear
2:35 AM 37.6 °F 28.4 °F 14.0 °F 38% 29.99 in 10.0 mi SSW 16.1 mph 24.2 mph N/A   Clear
2:55 AM 37.4 °F 27.8 °F 14.0 °F 38% 30.00 in 10.0 mi SSW 17.3 mph - N/A   Clear
3:15 AM 36.5 °F 27.8 °F 14.4 °F 40% 30.01 in 10.0 mi SSW 13.8 mph - N/A   Clear
3:35 AM 35.8 °F 27.3 °F 14.7 °F 42% 30.01 in 10.0 mi SSW 12.7 mph - N/A   Clear
3:55 AM 35.6 °F 27.1 °F 14.7 °F 42% 30.01 in 10.0 mi SSW 12.7 mph - N/A   Clear
4:15 AM 35.4 °F 26.4 °F 14.9 °F 43% 30.00 in 10.0 mi South 13.8 mph - N/A   Clear
4:35 AM 34.0 °F 24.6 °F 15.3 °F 46% 30.00 in 10.0 mi South 13.8 mph - N/A   Clear
4:55 AM 34.2 °F 24.0 °F 15.3 °F 46% 29.99 in 10.0 mi South 16.1 mph - N/A   Clear
5:15 AM 34.0 °F 24.6 °F 15.3 °F 46% 30.00 in 10.0 mi SSW 13.8 mph - N/A   Clear
5:35 AM 33.6 °F 25.0 °F 15.3 °F 47% 30.01 in 10.0 mi South 11.5 mph - N/A   Clear
5:55 AM 32.0 °F 23.0 °F 15.6 °F 51% 30.01 in 10.0 mi South 11.5 mph - N/A   Clear
6:15 AM 32.5 °F 24.2 °F 15.6 °F 50% 30.01 in 10.0 mi South 10.4 mph - N/A   Clear
6:35 AM 32.0 °F 22.1 °F 15.6 °F 51% 30.01 in 10.0 mi SSW 13.8 mph - N/A   Clear
6:55 AM 32.0 °F 22.5 °F 15.8 °F 51% 30.01 in 10.0 mi SSW 12.7 mph - N/A   Clear
7:15 AM 32.0 °F 23.0 °F 15.8 °F 51% 30.02 in 10.0 mi SSW 11.5 mph - N/A   Clear
7:35 AM 31.5 °F 21.8 °F 16.2 °F 53% 30.02 in 10.0 mi South 12.7 mph - N/A   Clear
7:55 AM 31.3 °F 22.7 °F 16.3 °F 54% 30.03 in 10.0 mi SSW 10.4 mph - N/A   Clear
8:15 AM 30.7 °F 22.6 °F 16.5 °F 56% 30.03 in 10.0 mi SSW 9.2 mph - N/A   Clear
8:35 AM 31.3 °F - 17.2 °F 56% 30.03 in 10.0 mi Calm Calm - N/A   Clear
8:55 AM 33.8 °F - 18.0 °F 52% 30.04 in 10.0 mi Calm Calm - N/A   Clear
9:15 AM 36.0 °F 28.0 °F 18.3 °F 49% 30.04 in 10.0 mi South 11.5 mph - N/A   Clear
9:35 AM 38.1 °F 30.2 °F 19.0 °F 46% 30.04 in 10.0 mi SSW 12.7 mph - N/A   Clear
9:55 AM 39.9 °F 31.8 °F 19.4 °F 44% 30.05 in 10.0 mi SSW 15.0 mph - N/A   Clear
10:15 AM 41.2 °F 33.7 °F 20.1 °F 43% 30.05 in 10.0 mi SSW 13.8 mph - N/A   Clear
10:35 AM 43.7 °F 36.6 °F 20.7 °F 40% 30.06 in 10.0 mi SW 15.0 mph - N/A   Clear
10:55 AM 45.3 °F 39.0 °F 20.7 °F 38% 30.06 in 10.0 mi SW 13.8 mph - N/A   Clear
11:15 AM 46.6 °F - 21.0 °F 36% 30.05 in 10.0 mi SW 12.7 mph 17.3 mph N/A   Clear
11:35 AM 48.6 °F - 21.2 °F 34% 30.05 in 10.0 mi WSW 11.5 mph - N/A   Clear
11:55 AM 49.6 °F - 21.4 °F 33% 30.05 in 10.0 mi SSW 10.4 mph - N/A   Clear
12:15 PM 50.0 °F - 21.2 °F 32% 30.05 in 10.0 mi Calm Calm - N/A   Clear
12:35 PM 50.4 °F - 21.2 °F 32% 30.04 in 10.0 mi Calm Calm - N/A   Clear
12:55 PM 50.9 °F - 21.6 °F 32% 30.04 in 10.0 mi Calm Calm - N/A   Clear
1:15 PM 52.2 °F - 21.9 °F 31% 30.03 in 10.0 mi Calm Calm - N/A   Clear
1:35 PM 51.6 °F - 21.4 °F 31% 30.02 in 10.0 mi Calm Calm - N/A   Clear
1:55 PM 52.9 °F - 21.6 °F 29% 30.03 in 10.0 mi Calm Calm - N/A   Clear
2:15 PM 52.2 °F - 21.7 °F 30% 30.03 in 10.0 mi Calm Calm - N/A   Clear
2:35 PM 53.6 °F - 21.9 °F 29% 30.02 in 10.0 mi Calm Calm - N/A   Clear
2:55 PM 54.5 °F - 22.1 °F 28% 30.02 in 10.0 mi SSW 3.5 mph - N/A   Clear
3:15 PM 53.1 °F - 22.1 °F 30% 30.02 in 10.0 mi Calm Calm - N/A   Clear
3:35 PM 53.4 °F - 21.7 °F 29% 30.03 in 10.0 mi Calm Calm - N/A   Clear
3:55 PM 52.9 °F - 21.9 °F 30% 30.03 in 10.0 mi SSW 3.5 mph - N/A   Clear
4:15 PM 51.8 °F - 21.6 °F 31% 30.03 in 10.0 mi Calm Calm - N/A   Clear
4:35 PM 49.8 °F - 21.6 °F 33% 30.04 in 10.0 mi Calm Calm - N/A   Clear
6:15 PM 44.8 °F - 20.5 °F 38% 30.05 in 10.0 mi Calm Calm - N/A   Clear
7:15 PM 41.2 °F - 21.0 °F 45% 30.06 in 10.0 mi Calm Calm - N/A   Clear
7:35 PM 40.5 °F - 21.2 °F 46% 30.07 in 10.0 mi Calm Calm - N/A   Clear
7:55 PM 41.0 °F - 21.2 °F 45% 30.06 in 10.0 mi Calm Calm - N/A   Clear
8:15 PM 41.4 °F - 21.2 °F 45% 30.05 in 10.0 mi Calm Calm - N/A   Clear
8:35 PM 40.5 °F - 21.2 °F 46% 30.06 in 10.0 mi Calm Calm - N/A   Clear
8:55 PM 40.1 °F - 21.2 °F 47% 30.06 in 10.0 mi Calm Calm - N/A   Clear
9:15 PM 41.9 °F - 21.6 °F 44% 30.05 in 10.0 mi Calm Calm - N/A   Clear
9:35 PM 39.7 °F - 21.6 °F 48% 30.06 in 10.0 mi Calm Calm - N/A   Clear
9:55 PM 39.2 °F - 21.7 °F 50% 30.06 in 10.0 mi Calm Calm - N/A   Clear
10:15 PM 38.3 °F - 21.4 °F 51% 30.06 in 10.0 mi Calm Calm - N/A   Clear
10:35 PM 38.3 °F - 21.2 °F 50% 30.06 in 10.0 mi Calm Calm - N/A   Clear
10:55 PM 36.5 °F - 21.4 °F 54% 30.05 in 10.0 mi Calm Calm - N/A   Clear
11:15 PM 34.0 °F - 21.6 °F 60% 30.05 in 10.0 mi Calm Calm - N/A   Clear
11:35 PM 34.5 °F - 21.2 °F 58% 30.04 in 10.0 mi Calm Calm - N/A   Clear
11:55 PM 34.0 °F - 21.4 °F 60% 30.05 in 10.0 mi Calm Calm - N/A   Clear